JST171 YMML-YSSY

Flight info

Callsign JST171
Flight time 1h 6m
Altitude 35000
Route ML H129 DOSEL Y59 RIVET
Aircraft A320/M-SDE3FGHIRWY/LB1

Departure

Time 2026-04-26 01:59
Airport Melbourne Airport (YMML)

Arrival

Time 2026-04-26 03:06
Airport Sydney Kingsford Smith International Airport (YSSY)
Time Latitude Longitude Altitude Speed Heading
2026-04-26 01:19 -37.67529 144.84791 352 ft 0 kts 172°
2026-04-26 01:47 -37.67518 144.84789 373 ft 4 kts 173°
2026-04-26 01:48 -37.67491 144.84786 356 ft 4 kts 178°
2026-04-26 01:48 -37.67464 144.84786 357 ft 4 kts 185°
2026-04-26 01:48 -37.67438 144.84792 359 ft 4 kts 207°
2026-04-26 01:48 -37.67423 144.84809 358 ft 1 kts 262°
2026-04-26 01:49 -37.67423 144.84810 358 ft 0 kts 262°
2026-04-26 01:52 -37.67424 144.84802 359 ft 6 kts 260°
2026-04-26 01:52 -37.67434 144.84731 354 ft 9 kts 261°
2026-04-26 01:52 -37.67443 144.84655 360 ft 9 kts 262°
2026-04-26 01:53 -37.67453 144.84568 356 ft 11 kts 262°
2026-04-26 01:53 -37.67464 144.84476 358 ft 11 kts 262°
2026-04-26 01:53 -37.67476 144.84383 359 ft 11 kts 254°
2026-04-26 01:53 -37.67571 144.84340 359 ft 19 kts 171°
2026-04-26 01:54 -37.67714 144.84366 362 ft 23 kts 172°
2026-04-26 01:54 -37.67881 144.84395 352 ft 26 kts 172°
2026-04-26 01:54 -37.68074 144.84431 352 ft 30 kts 171°
2026-04-26 01:54 -37.68266 144.84468 336 ft 23 kts 171°
2026-04-26 01:55 -37.68420 144.84406 332 ft 25 kts 215°
2026-04-26 01:55 -37.68543 144.84283 330 ft 19 kts 241°
2026-04-26 01:55 -37.68554 144.84228 332 ft 0 kts 263°
2026-04-26 01:58 -37.68562 144.84141 331 ft 19 kts 263°
2026-04-26 01:58 -37.68515 144.84084 333 ft 8 kts 354°
2026-04-26 01:58 -37.68309 144.84046 336 ft 69 kts 352°
2026-04-26 01:58 -37.67587 144.83914 368 ft 136 kts 353°
2026-04-26 01:59 -37.66524 144.83725 734 ft 164 kts 352°
2026-04-26 01:59 -37.65421 144.83511 1443 ft 158 kts 352°
2026-04-26 01:59 -37.64267 144.83288 1706 ft 179 kts 353°
2026-04-26 01:59 -37.62947 144.83035 2066 ft 204 kts 351°
2026-04-26 02:00 -37.61473 144.82748 2579 ft 226 kts 350°
2026-04-26 02:00 -37.59876 144.82458 3283 ft 237 kts 354°
2026-04-26 02:00 -37.58222 144.82815 4206 ft 249 kts 19°
2026-04-26 02:00 -37.56639 144.83751 5110 ft 254 kts 21°
2026-04-26 02:01 -37.55031 144.84732 6004 ft 259 kts 22°
2026-04-26 02:01 -37.53396 144.85737 6828 ft 263 kts 21°
2026-04-26 02:01 -37.51740 144.86751 7675 ft 266 kts 22°
2026-04-26 02:01 -37.50057 144.87776 8477 ft 270 kts 22°
2026-04-26 02:02 -37.48351 144.88816 9228 ft 275 kts 22°
2026-04-26 02:02 -37.46618 144.89868 10009 ft 279 kts 22°
2026-04-26 02:02 -37.44853 144.91062 10400 ft 301 kts 29°
2026-04-26 02:02 -37.43160 144.92806 10604 ft 327 kts 42°
2026-04-26 02:03 -37.41714 144.95106 11119 ft 340 kts 51°
2026-04-26 02:03 -37.40351 144.97561 11771 ft 344 kts 51°
2026-04-26 02:03 -37.38964 145.00030 12457 ft 347 kts 51°
2026-04-26 02:03 -37.37559 145.02511 13143 ft 350 kts 52°
2026-04-26 02:04 -37.36157 145.04982 13762 ft 354 kts 51°
2026-04-26 02:04 -37.34716 145.07519 14363 ft 358 kts 51°
2026-04-26 02:04 -37.33261 145.10079 14978 ft 361 kts 51°
2026-04-26 02:04 -37.31798 145.12656 15577 ft 362 kts 51°
2026-04-26 02:05 -37.30330 145.15243 16189 ft 364 kts 51°
2026-04-26 02:05 -37.28855 145.17838 16796 ft 366 kts 51°
2026-04-26 02:05 -37.27372 145.20446 17403 ft 368 kts 51°
2026-04-26 02:05 -37.25879 145.23075 18012 ft 371 kts 51°
2026-04-26 02:06 -37.24378 145.25716 18617 ft 373 kts 50°
2026-04-26 02:06 -37.22866 145.28372 19137 ft 375 kts 51°
2026-04-26 02:06 -37.21347 145.31043 19640 ft 378 kts 51°
2026-04-26 02:06 -37.19808 145.33740 20151 ft 382 kts 51°
2026-04-26 02:07 -37.18253 145.36460 20645 ft 385 kts 51°
2026-04-26 02:07 -37.16687 145.39196 21113 ft 388 kts 51°
2026-04-26 02:07 -37.15109 145.41961 21579 ft 391 kts 51°
2026-04-26 02:07 -37.13518 145.44747 22027 ft 394 kts 51°
2026-04-26 02:08 -37.11935 145.47514 22465 ft 397 kts 51°
2026-04-26 02:08 -37.10314 145.50335 22915 ft 400 kts 51°
2026-04-26 02:08 -37.08679 145.53177 23359 ft 403 kts 51°
2026-04-26 02:08 -37.07033 145.56037 23783 ft 406 kts 51°
2026-04-26 02:09 -37.05380 145.58919 24162 ft 409 kts 52°
2026-04-26 02:09 -37.03717 145.61822 24537 ft 411 kts 52°
2026-04-26 02:09 -37.02040 145.64737 24915 ft 414 kts 51°
2026-04-26 02:09 -37.00347 145.67661 25305 ft 415 kts 51°
2026-04-26 02:10 -36.98650 145.70591 25688 ft 417 kts 52°
2026-04-26 02:10 -36.96944 145.73542 26061 ft 419 kts 52°
2026-04-26 02:10 -36.95234 145.76509 26435 ft 421 kts 51°
2026-04-26 02:10 -36.93513 145.79492 26764 ft 424 kts 52°
2026-04-26 02:11 -36.91778 145.82491 27061 ft 428 kts 52°
2026-04-26 02:11 -36.90026 145.85509 27389 ft 430 kts 52°
2026-04-26 02:11 -36.88262 145.88542 27733 ft 433 kts 52°
2026-04-26 02:11 -36.86491 145.91587 28095 ft 435 kts 51°
2026-04-26 02:12 -36.84708 145.94648 28454 ft 437 kts 51°
2026-04-26 02:12 -36.82939 145.97681 28803 ft 439 kts 51°
2026-04-26 02:12 -36.81133 146.00779 29147 ft 442 kts 52°
2026-04-26 02:12 -36.79319 146.03892 29479 ft 444 kts 51°
2026-04-26 02:13 -36.77494 146.07022 29756 ft 448 kts 52°
2026-04-26 02:13 -36.75646 146.10186 30020 ft 452 kts 52°
2026-04-26 02:13 -36.73791 146.13355 30367 ft 453 kts 52°
2026-04-26 02:13 -36.71935 146.16529 30797 ft 452 kts 52°
2026-04-26 02:14 -36.70088 146.19687 31219 ft 451 kts 52°
2026-04-26 02:14 -36.68248 146.22837 31634 ft 449 kts 52°
2026-04-26 02:14 -36.66409 146.25973 32068 ft 448 kts 52°
2026-04-26 02:14 -36.64567 146.29106 32495 ft 447 kts 52°
2026-04-26 02:15 -36.62736 146.32223 32917 ft 446 kts 52°
2026-04-26 02:15 -36.60901 146.35342 33294 ft 446 kts 52°
2026-04-26 02:15 -36.59064 146.38449 33704 ft 445 kts 52°
2026-04-26 02:15 -36.57232 146.41549 34144 ft 444 kts 52°
2026-04-26 02:16 -36.55412 146.44634 34532 ft 442 kts 52°
2026-04-26 02:16 -36.53591 146.47714 34904 ft 441 kts 52°
2026-04-26 02:16 -36.51778 146.50780 35186 ft 440 kts 52°
2026-04-26 02:17 -36.48160 146.56896 35262 ft 444 kts 51°
2026-04-26 02:17 -36.44439 146.63180 35263 ft 457 kts 51°
2026-04-26 02:18 -36.40652 146.69567 35262 ft 460 kts 51°
2026-04-26 02:18 -36.36854 146.75950 35264 ft 460 kts 51°
2026-04-26 02:19 -36.33039 146.82344 35268 ft 461 kts 51°
2026-04-26 02:19 -36.29225 146.88732 35266 ft 461 kts 52°
2026-04-26 02:20 -36.25404 146.95116 35270 ft 461 kts 52°
2026-04-26 02:20 -36.21576 147.01494 35271 ft 461 kts 51°
2026-04-26 02:21 -36.17742 147.07873 35271 ft 461 kts 51°
2026-04-26 02:21 -36.13912 147.14245 35269 ft 462 kts 52°
2026-04-26 02:22 -36.10097 147.20573 35263 ft 462 kts 52°
2026-04-26 02:22 -36.06221 147.26981 35263 ft 462 kts 51°
2026-04-26 02:23 -36.02387 147.33306 35273 ft 462 kts 51°
2026-04-26 02:23 -35.98529 147.39664 35269 ft 462 kts 52°
2026-04-26 02:24 -35.94674 147.46017 35260 ft 463 kts 52°
2026-04-26 02:24 -35.90803 147.52385 35262 ft 464 kts 52°
2026-04-26 02:25 -35.86913 147.58768 35262 ft 465 kts 52°
2026-04-26 02:25 -35.83022 147.65130 35265 ft 465 kts 52°
2026-04-26 02:26 -35.79122 147.71494 35257 ft 466 kts 52°
2026-04-26 02:26 -35.75234 147.77840 35257 ft 467 kts 52°
2026-04-26 02:27 -35.71317 147.84224 35263 ft 468 kts 52°
2026-04-26 02:27 -35.67389 147.90609 35265 ft 468 kts 52°
2026-04-26 02:28 -35.63450 147.96993 35265 ft 469 kts 52°
2026-04-26 02:28 -35.59508 148.03382 35265 ft 469 kts 52°
2026-04-26 02:29 -35.55551 148.09766 35270 ft 470 kts 52°
2026-04-26 02:29 -35.51593 148.16156 35272 ft 470 kts 52°
2026-04-26 02:30 -35.47637 148.22539 35269 ft 470 kts 52°
2026-04-26 02:30 -35.43692 148.28873 35274 ft 470 kts 51°
2026-04-26 02:31 -35.39711 148.35253 35074 ft 471 kts 51°
2026-04-26 02:31 -35.37723 148.38435 34916 ft 471 kts 51°
2026-04-26 02:31 -35.35726 148.41624 35090 ft 471 kts 51°
2026-04-26 02:31 -35.33723 148.44818 35239 ft 472 kts 51°
2026-04-26 02:32 -35.31728 148.47998 35273 ft 471 kts 51°
2026-04-26 02:32 -35.27767 148.54319 35271 ft 459 kts 51°
2026-04-26 02:33 -35.23912 148.60481 35270 ft 454 kts 51°
2026-04-26 02:33 -35.20055 148.66610 35270 ft 454 kts 51°
2026-04-26 02:34 -35.16228 148.72676 35269 ft 454 kts 51°
2026-04-26 02:34 -35.12369 148.78776 35264 ft 452 kts 51°
2026-04-26 02:35 -35.08529 148.84862 35268 ft 452 kts 51°
2026-04-26 02:35 -35.04687 148.90936 35267 ft 452 kts 51°
2026-04-26 02:36 -35.00836 148.97002 35206 ft 453 kts 51°
2026-04-26 02:36 -34.98911 149.00032 34961 ft 448 kts 51°
2026-04-26 02:36 -34.97019 149.03007 34727 ft 440 kts 51°
2026-04-26 02:36 -34.95158 149.05929 34425 ft 434 kts 51°
2026-04-26 02:37 -34.93314 149.08814 34044 ft 429 kts 51°
2026-04-26 02:37 -34.91486 149.11673 33641 ft 424 kts 51°
2026-04-26 02:37 -34.89686 149.14496 33316 ft 418 kts 51°
2026-04-26 02:37 -34.87915 149.17273 33053 ft 415 kts 51°
2026-04-26 02:38 -34.86108 149.20100 32795 ft 431 kts 51°
2026-04-26 02:38 -34.84249 149.22995 32540 ft 436 kts 50°
2026-04-26 02:38 -34.82384 149.25902 32283 ft 436 kts 51°
2026-04-26 02:38 -34.80518 149.28816 32029 ft 435 kts 50°
2026-04-26 02:39 -34.78667 149.31715 31775 ft 433 kts 51°
2026-04-26 02:39 -34.76846 149.34561 31527 ft 430 kts 50°
2026-04-26 02:39 -34.75008 149.37428 31277 ft 428 kts 51°
2026-04-26 02:39 -34.73373 149.40441 31036 ft 427 kts 60°
2026-04-26 02:40 -34.71990 149.43637 30798 ft 426 kts 61°
2026-04-26 02:40 -34.70616 149.46812 30555 ft 424 kts 61°
2026-04-26 02:40 -34.69243 149.49957 30231 ft 419 kts 60°
2026-04-26 02:40 -34.67877 149.53070 29717 ft 415 kts 60°
2026-04-26 02:41 -34.66525 149.56146 29256 ft 411 kts 60°
2026-04-26 02:41 -34.65189 149.59192 28794 ft 407 kts 60°
2026-04-26 02:41 -34.63869 149.62210 28330 ft 403 kts 60°
2026-04-26 02:41 -34.62561 149.65200 27890 ft 399 kts 60°
2026-04-26 02:42 -34.61263 149.68160 27456 ft 396 kts 60°
2026-04-26 02:42 -34.59976 149.71092 27040 ft 392 kts 60°
2026-04-26 02:42 -34.58696 149.74005 26613 ft 389 kts 60°
2026-04-26 02:42 -34.57441 149.76859 26194 ft 386 kts 60°
2026-04-26 02:43 -34.54930 149.82574 25399 ft 381 kts 60°
2026-04-26 02:43 -34.53689 149.85400 24998 ft 378 kts 60°
2026-04-26 02:43 -34.52457 149.88199 24603 ft 375 kts 60°
2026-04-26 02:44 -34.51228 149.90983 24195 ft 373 kts 60°
2026-04-26 02:44 -34.50003 149.93750 23785 ft 371 kts 60°
2026-04-26 02:44 -34.48786 149.96491 23334 ft 368 kts 60°
2026-04-26 02:44 -34.47579 149.99216 22918 ft 364 kts 60°
2026-04-26 02:45 -34.46390 150.01907 22504 ft 360 kts 60°
2026-04-26 02:45 -34.45611 150.03673 22220 ft 358 kts 60°
2026-04-26 02:45 -34.44440 150.06324 21810 ft 355 kts 60°
2026-04-26 02:45 -34.43277 150.08946 21390 ft 352 kts 60°
2026-04-26 02:46 -34.42117 150.11550 20960 ft 350 kts 60°
2026-04-26 02:46 -34.40964 150.14141 20534 ft 348 kts 60°
2026-04-26 02:46 -34.39816 150.16720 20111 ft 346 kts 60°
2026-04-26 02:46 -34.38677 150.19281 19687 ft 345 kts 60°
2026-04-26 02:47 -34.37544 150.21826 19262 ft 343 kts 60°
2026-04-26 02:47 -34.36411 150.24375 18838 ft 342 kts 61°
2026-04-26 02:47 -34.35285 150.26903 18405 ft 341 kts 61°
2026-04-26 02:47 -34.34161 150.29422 17951 ft 338 kts 61°
2026-04-26 02:48 -34.33044 150.31921 17527 ft 336 kts 61°
2026-04-26 02:48 -34.31950 150.34363 17115 ft 334 kts 61°
2026-04-26 02:48 -34.30846 150.36824 16699 ft 332 kts 60°
2026-04-26 02:48 -34.29746 150.39277 16282 ft 331 kts 61°
2026-04-26 02:49 -34.28654 150.41723 15866 ft 330 kts 61°
2026-04-26 02:49 -34.27566 150.44160 15436 ft 329 kts 61°
2026-04-26 02:49 -34.26480 150.46587 15030 ft 328 kts 61°
2026-04-26 02:49 -34.25396 150.49010 14622 ft 328 kts 61°
2026-04-26 02:50 -34.24312 150.51435 14217 ft 328 kts 61°
2026-04-26 02:50 -34.23227 150.53863 13758 ft 328 kts 61°
2026-04-26 02:50 -34.22140 150.56291 13140 ft 332 kts 61°
2026-04-26 02:50 -34.21035 150.58755 12621 ft 333 kts 61°
2026-04-26 02:51 -34.19944 150.61186 12197 ft 324 kts 62°
2026-04-26 02:51 -34.18889 150.63540 11816 ft 315 kts 62°
2026-04-26 02:51 -34.17858 150.65834 11414 ft 315 kts 61°
2026-04-26 02:51 -34.16811 150.68155 11013 ft 314 kts 62°
2026-04-26 02:52 -34.15770 150.70465 10608 ft 314 kts 62°
2026-04-26 02:52 -34.14728 150.72778 10214 ft 313 kts 62°
2026-04-26 02:52 -34.13701 150.75061 10056 ft 304 kts 62°
2026-04-26 02:52 -34.12707 150.77265 9889 ft 295 kts 62°
2026-04-26 02:53 -34.11733 150.79427 9551 ft 293 kts 61°
2026-04-26 02:53 -34.10763 150.81577 9209 ft 292 kts 61°
2026-04-26 02:53 -34.09799 150.83723 8906 ft 288 kts 61°
2026-04-26 02:53 -34.08859 150.85813 8574 ft 279 kts 61°
2026-04-26 02:54 -34.07937 150.87859 8290 ft 277 kts 60°
2026-04-26 02:54 -34.07018 150.89895 8019 ft 274 kts 60°
2026-04-26 02:54 -34.06112 150.91905 7741 ft 272 kts 60°
2026-04-26 02:54 -34.05213 150.93901 7501 ft 269 kts 61°
2026-04-26 02:55 -34.04324 150.95878 7241 ft 267 kts 61°
2026-04-26 02:55 -34.03574 150.97915 6980 ft 266 kts 75°
2026-04-26 02:55 -34.03438 151.00120 6722 ft 265 kts 96°
2026-04-26 02:55 -34.03964 151.02247 6435 ft 269 kts 117°
2026-04-26 02:56 -34.05102 151.04063 6160 ft 274 kts 132°
2026-04-26 02:56 -34.06425 151.05732 5917 ft 277 kts 133°
2026-04-26 02:56 -34.07906 151.07202 5594 ft 277 kts 148°
2026-04-26 02:56 -34.09633 151.08130 5324 ft 275 kts 164°
2026-04-26 02:57 -34.11494 151.08633 5055 ft 272 kts 168°
2026-04-26 02:57 -34.13337 151.09104 4788 ft 270 kts 168°
2026-04-26 02:57 -34.15201 151.09586 4173 ft 281 kts 168°
2026-04-26 02:57 -34.17107 151.10129 3866 ft 279 kts 159°
2026-04-26 02:58 -34.18709 151.11364 3593 ft 273 kts 130°
2026-04-26 02:58 -34.19621 151.13307 3319 ft 264 kts 101°
2026-04-26 02:58 -34.19659 151.15462 3066 ft 255 kts 77°
2026-04-26 02:58 -34.19284 151.17506 2984 ft 243 kts 73°
2026-04-26 02:59 -34.18885 151.19420 2989 ft 227 kts 73°
2026-04-26 02:59 -34.18517 151.21211 2986 ft 212 kts 73°
2026-04-26 02:59 -34.18069 151.22821 2985 ft 193 kts 51°
2026-04-26 02:59 -34.17040 151.23583 3006 ft 167 kts
2026-04-26 03:00 -34.16032 151.23219 2992 ft 140 kts 336°
2026-04-26 03:00 -34.15161 151.22944 2999 ft 129 kts 349°
2026-04-26 03:00 -34.14261 151.22708 2999 ft 135 kts 348°
2026-04-26 03:00 -34.13337 151.22466 3004 ft 136 kts 348°
2026-04-26 03:01 -34.12407 151.22223 3002 ft 137 kts 349°
2026-04-26 03:01 -34.11472 151.21979 2949 ft 138 kts 349°
2026-04-26 03:01 -34.10534 151.21734 2816 ft 137 kts 349°
2026-04-26 03:01 -34.09599 151.21490 2658 ft 137 kts 349°
2026-04-26 03:02 -34.08665 151.21247 2485 ft 137 kts 349°
2026-04-26 03:02 -34.07729 151.21003 2311 ft 137 kts 349°
2026-04-26 03:02 -34.06797 151.20761 2129 ft 137 kts 349°
2026-04-26 03:02 -34.05868 151.20519 1947 ft 137 kts 350°
2026-04-26 03:03 -34.04938 151.20277 1765 ft 136 kts 349°
2026-04-26 03:03 -34.04011 151.20036 1591 ft 137 kts 348°
2026-04-26 03:03 -34.03082 151.19795 1400 ft 136 kts 347°
2026-04-26 03:03 -34.02149 151.19552 1224 ft 140 kts 348°
2026-04-26 03:04 -34.01197 151.19305 1032 ft 138 kts 348°
2026-04-26 03:04 -34.00272 151.19065 849 ft 136 kts 347°
2026-04-26 03:04 -33.99349 151.18825 668 ft 136 kts 348°
2026-04-26 03:04 -33.98423 151.18584 474 ft 137 kts 349°
2026-04-26 03:05 -33.97506 151.18346 286 ft 136 kts 349°
2026-04-26 03:05 -33.96586 151.18107 105 ft 135 kts 348°
2026-04-26 03:05 -33.95714 151.17881 21 ft 116 kts 348°
2026-04-26 03:05 -33.95111 151.17728 20 ft 69 kts 348°
2026-04-26 03:06 -33.94817 151.17651 23 ft 30 kts 347°
2026-04-26 03:06 -33.94624 151.17654 25 ft 22 kts
2026-04-26 03:06 -33.94486 151.17699 24 ft 21 kts 17°
2026-04-26 03:06 -33.94446 151.17714 25 ft 0 kts 17°
2026-04-26 03:07 -33.94436 151.17718 26 ft 3 kts 17°
2026-04-26 03:07 -33.94401 151.17730 24 ft 7 kts 17°
2026-04-26 03:07 -33.94331 151.17735 22 ft 13 kts 346°
2026-04-26 03:08 -33.94229 151.17701 21 ft 17 kts 345°
2026-04-26 03:08 -33.94109 151.17667 22 ft 19 kts 347°
2026-04-26 03:08 -33.93971 151.17629 20 ft 21 kts 347°
2026-04-26 03:08 -33.93866 151.17675 21 ft 18 kts 69°
2026-04-26 03:09 -33.93804 151.17780 22 ft 15 kts 13°
2026-04-26 03:09 -33.93713 151.17798 30 ft 11 kts
2026-04-26 03:09 -33.93630 151.17816 30 ft 14 kts 10°
2026-04-26 03:09 -33.93574 151.17812 30 ft 6 kts 304°
2026-04-26 03:10 -33.93565 151.17771 30 ft 1 kts 281°
2026-04-26 03:10 -33.93564 151.17763 30 ft 0 kts 280°